GFSNGP_850_dewp_141.txt.gz
Dewpoint
4 4 4 4 4 2 4 3 3 3 1 3 4 4 3 3 2 2 1 1 1 0 -0 -0 -1 -1 -2 -4 -4 -4 -4 -4 -4 -5 -6 -7 -11 -15 -20 -22 -22 -27 -32 -25
3 4 4 3 1 2 3 5 6 6 6 2 3 4 4 3 2 2 2 1 1 1 2 1 1 0 -2 -4 -4 -4 -4 -4 -5 -6 -7 -10 -15 -20 -23 -25 -25 -30 -32 -27
4 4 3 3 2 2 2 4 3 4 3 1 2 2 1 2 2 2 2 2 2 2 3 3 3 -0 -2 -3 -3 -4 -4 -4 -5 -6 -8 -14 -19 -24 -26 -27 -30 -32 -32 -31
3 4 3 -2 -1 0 1 1 1 1 1 0 1 -1 1 2 3 2 2 2 2 3 3 2 1 -1 -1 -1 -2 -4 -4 -5 -6 -7 -12 -18 -22 -24 -24 -27 -30 -32 -33 -29
2 3 0 -4 -2 2 2 2 -0 0 -0 -1 -0 -1 1 0 4 3 3 2 1 3 2 1 -0 -2 -0 -1 -3 -4 -5 -6 -7 -10 -16 -20 -22 -21 -22 -24 -25 -29 -30 -26
1 0 1 -2 -2 -2 -2 0 -4 -2 -3 -3 0 3 1 1 -0 -2 -1 -0 2 3 2 1 -0 -0 -0 -3 -3 -5 -6 -7 -9 -16 -19 -22 -19 -19 -20 -17 -17 -22 -26 -24
2 2 0 -2 -4 -3 -2 -3 -3 -2 -1 0 -0 -0 -2 -2 -1 -1 1 1 3 2 1 -0 -1 -0 -3 -1 -4 -5 -5 -7 -11 -19 -23 -20 -19 -17 -17 -14 -15 -17 -26 -25
2 2 1 -4 -2 -1 -2 -4 -4 -3 -2 -2 -2 -3 -1 0 1 1 2 1 1 0 -0 -1 -1 -2 -2 -3 -5 -4 -5 -8 -19 -23 -21 -18 -16 -14 -13 -12 -13 -18 -28 -28
-1 -1 -4 -3 -3 -4 -4 -3 -3 -4 -3 -1 -2 -2 -0 0 0 1 0 0 -0 -1 -1 -2 -3 -2 -1 -5 -4 -4 -7 -17 -22 -20 -18 -14 -13 -12 -12 -12 -13 -19 -26 -26
-1 -4 -2 -3 -4 -4 -4 -3 -3 -2 -2 -2 -2 -2 -1 -0 -1 -1 -1 -1 -1 -1 -2 -3 -3 -2 -2 -3 -4 -5 -13 -20 -20 -19 -15 -13 -12 -12 -12 -13 -14 -20 -26 -24
-2 -3 -3 -6 -5 -2 -1 -1 -2 -2 -0 -0 -1 -1 -1 -1 -1 -2 -2 -2 -2 -2 -3 -3 -4 -3 -3 -4 -5 -8 -16 -18 -17 -15 -13 -12 -11 -12 -12 -12 -14 -23 -26 -23
-3 -6 -5 -4 -3 -1 -0 0 -0 -0 -0 -0 -0 -1 -1 -1 -2 -2 -3 -3 -2 -3 -3 -3 -3 -4 -5 -5 -6 -7 -14 -17 -15 -14 -12 -12 -12 -12 -12 -14 -21 -27 -24 -20
-6 -6 -3 -2 -3 -5 -2 -2 -1 -0 -0 -0 -0 -1 -2 -2 -2 -2 -2 -3 -3 -3 -3 -3 -3 -4 -5 -6 -7 -9 -17 -18 -15 -14 -14 -16 -17 -23 -26 -21 -24 -27 -20 -17
-5 -2 -1 -2 -3 -4 -2 -2 -1 -0 -0 -1 -1 -2 -3 -3 -2 -3 -3 -3 -3 -3 -3 -3 -4 -5 -6 -7 -8 -12 -19 -19 -16 -15 -15 -23 -22 -19 -18 -19 -20 -19 -17 -17
-7 -4 -3 -3 -2 -2 -2 -1 0 0 -1 -2 -3 -4 -3 -3 -3 -3 -3 -3 -3 -4 -4 -5 -6 -7 -7 -8 -8 -14 -19 -16 -16 -16 -15 -17 -15 -14 -15 -15 -16 -16 -20 -19
-7 -3 -3 -1 -2 -2 -2 -1 -0 -1 -2 -3 -4 -4 -4 -4 -4 -4 -4 -4 -4 -5 -6 -6 -7 -7 -8 -9 -10 -10 -10 -15 -15 -14 -14 -14 -14 -14 -14 -14 -15 -15 -15 -16
-2 -1 -2 -1 -2 -2 -2 -2 -1 -2 -1 -3 -5 -5 -5 -5 -5 -5 -5 -5 -5 -6 -6 -6 -7 -7 -8 -8 -9 -9 -12 -13 -13 -13 -14 -14 -14 -14 -15 -15 -15 -15 -15 -15
-2 -4 -2 -2 -3 -3 -3 -2 -2 -2 -3 -4 -5 -5 -5 -5 -6 -6 -6 -6 -6 -5 -6 -7 -7 -7 -8 -8 -8 -11 -13 -13 -13 -14 -14 -14 -14 -15 -15 -15 -15 -15 -16 -18
-3 -3 -1 -3 -4 -4 -4 -4 -3 -3 -4 -5 -5 -5 -6 -6 -6 -6 -6 -6 -6 -6 -7 -7 -8 -8 -8 -9 -10 -12 -13 -13 -13 -14 -14 -15 -15 -15 -16 -16 -16 -17 -18 -21
-2 -2 -3 -4 -4 -5 -5 -4 -4 -4 -5 -5 -5 -5 -6 -6 -6 -6 -6 -6 -6 -7 -7 -7 -8 -8 -8 -9 -12 -13 -13 -13 -13 -17 -18 -17 -16 -16 -17 -18 -20 -20 -22 -23
-2 -4 -4 -4 -5 -5 -5 -5 -5 -6 -6 -6 -6 -6 -6 -7 -7 -7 -7 -8 -8 -8 -8 -8 -8 -9 -9 -9 -13 -15 -17 -19 -19 -18 -18 -18 -17 -19 -21 -24 -25 -24 -25 -25
-4 -4 -5 -5 -5 -5 -5 -6 -6 -6 -6 -6 -5 -6 -6 -7 -7 -7 -7 -8 -8 -9 -9 -9 -9 -9 -9 -14 -22 -23 -20 -19 -19 -19 -18 -19 -21 -23 -25 -26 -27 -27 -26 -26
-4 -5 -5 -6 -6 -6 -6 -6 -6 -6 -6 -6 -6 -6 -6 -7 -7 -8 -8 -9 -9 -10 -10 -10 -10 -10 -15 -21 -18 -16 -16 -17 -17 -18 -20 -21 -23 -25 -26 -27 -26 -26 -26 -26
-5 -5 -5 -6 -6 -6 -6 -7 -7 -6 -7 -7 -7 -7 -7 -7 -8 -8 -9 -9 -9 -10 -10 -10 -12 -15 -21 -20 -17 -16 -17 -19 -19 -19 -20 -21 -24 -25 -25 -24 -25 -25 -26 -27
-6 -6 -7 -7 -7 -7 -7 -8 -8 -7 -7 -7 -8 -8 -8 -8 -8 -9 -9 -10 -10 -10 -10 -11 -13 -19 -22 -22 -20 -19 -19 -20 -21 -21 -22 -24 -26 -26 -25 -25 -26 -27 -27 -29
-7 -7 -7 -7 -7 -7 -8 -9 -8 -8 -8 -8 -8 -9 -9 -9 -9 -10 -10 -10 -10 -11 -11 -11 -13 -21 -22 -21 -20 -19 -19 -21 -21 -23 -25 -27 -27 -27 -27 -28 -29 -29 -30 -30
-7 -7 -7 -7 -7 -8 -8 -8 -8 -8 -9 -9 -9 -9 -9 -9 -10 -10 -10 -11 -11 -11 -11 -12 -12 -14 -17 -16 -16 -18 -20 -21 -22 -25 -27 -28 -28 -29 -30 -30 -30 -31 -30 -30

GFSNGP_850_dewp_144.txt.gz
Dewpoint
3 3 3 3 3 2 3 3 5 5 4 1 3 4 3 3 2 2 1 1 1 1 1 0 -0 -1 -1 -3 -4 -5 -5 -4 -5 -5 -5 -6 -8 -13 -19 -25 -29 -30 -30 -23
1 2 3 4 2 1 2 2 5 4 3 3 2 2 3 3 2 2 1 1 1 1 1 0 -0 -1 -1 -2 -4 -4 -3 -4 -5 -5 -5 -7 -11 -17 -24 -27 -30 -32 -27 -23
2 2 2 3 1 1 2 3 4 3 2 1 2 3 2 2 3 2 2 1 1 1 1 0 -0 -1 -2 -3 -3 -3 -3 -3 -5 -5 -6 -8 -14 -21 -27 -30 -31 -31 -28 -23
3 3 3 -3 -0 -0 1 1 2 1 -0 0 1 1 1 1 1 2 3 2 2 2 1 0 1 0 0 -1 -3 -1 -2 -4 -5 -6 -7 -11 -17 -24 -27 -30 -31 -32 -31 -27
3 3 1 -2 -5 1 2 0 0 1 0 -1 -0 1 1 1 2 1 3 3 2 2 1 1 1 1 1 -1 -0 -1 -2 -4 -5 -6 -8 -14 -21 -23 -26 -28 -29 -30 -29 -25
2 1 0 -3 -2 -1 -3 -1 -3 -2 -1 -1 1 2 1 -0 -1 1 1 3 4 3 3 1 1 2 0 -1 -0 -2 -2 -4 -5 -6 -11 -19 -23 -22 -23 -22 -21 -24 -26 -23
3 2 0 -3 -4 -3 -1 -2 -5 -3 -3 -0 -1 0 -1 -3 -0 1 0 -1 1 3 3 2 2 1 -0 -0 -1 -1 -3 -4 -6 -9 -16 -20 -21 -21 -20 -19 -17 -20 -23 -22
2 3 1 -5 -3 -1 -2 -4 -4 -4 -4 -2 -2 -3 -4 -3 -1 1 1 1 2 3 2 1 1 0 -1 -0 -1 -2 -4 -5 -7 -13 -17 -18 -21 -18 -17 -16 -15 -21 -25 -25
-1 -1 -4 -5 -3 -4 -4 -3 -4 -3 -3 -3 -2 -3 -3 -2 -0 0 0 1 1 1 1 -0 -0 -1 -1 -1 -2 -4 -5 -5 -8 -15 -17 -19 -19 -19 -16 -14 -15 -23 -27 -26
-1 -2 -3 -4 -4 -4 -5 -5 -3 -2 -2 -2 -2 -2 -2 -2 -1 -1 -1 -0 -0 -0 -0 -1 -1 -1 -1 -2 -4 -5 -5 -6 -13 -18 -19 -18 -16 -15 -13 -14 -15 -23 -27 -25
-2 -3 -4 -4 -4 -6 -6 -2 -2 -1 -1 -1 -0 -1 -1 -2 -2 -1 -1 -2 -1 -1 -1 -1 -2 -2 -3 -2 -4 -5 -6 -9 -18 -18 -18 -16 -14 -13 -13 -12 -14 -21 -27 -23
-1 -5 -7 -8 -6 -3 -2 -2 -1 -1 -1 -0 -0 -0 -1 -2 -2 -2 -1 -2 -2 -2 -2 -2 -2 -3 -3 -3 -5 -5 -7 -15 -18 -18 -15 -13 -12 -11 -11 -12 -14 -23 -24 -20
-6 -8 -8 -6 -2 -4 -5 -4 -3 -2 -1 -0 -0 -0 -1 -2 -2 -2 -2 -2 -3 -3 -3 -3 -3 -3 -4 -5 -5 -6 -7 -9 -14 -15 -13 -12 -12 -12 -14 -13 -17 -23 -19 -17
-7 -6 -3 -2 -2 -3 -3 -3 -2 -1 -0 -0 -0 -1 -2 -2 -2 -2 -3 -3 -3 -3 -3 -4 -4 -4 -5 -5 -6 -7 -7 -8 -16 -15 -14 -13 -14 -15 -19 -24 -25 -19 -15 -15
-8 -5 -4 -4 -3 -3 -2 -2 -1 -0 -0 -1 -2 -4 -4 -3 -3 -3 -3 -3 -4 -4 -4 -4 -4 -5 -6 -6 -7 -8 -8 -12 -16 -15 -14 -18 -23 -23 -20 -18 -19 -19 -17 -17
-7 -7 -5 -3 -2 -2 -2 -1 -0 -0 -1 -1 -4 -4 -5 -4 -4 -3 -3 -4 -4 -4 -5 -5 -5 -6 -7 -7 -8 -8 -9 -16 -14 -13 -14 -19 -18 -15 -15 -16 -16 -17 -19 -21
-5 -2 -2 -2 -2 -1 -1 -2 -1 -1 -1 -2 -4 -5 -5 -5 -5 -4 -4 -5 -5 -5 -5 -6 -6 -7 -7 -8 -8 -10 -12 -10 -12 -14 -14 -15 -15 -15 -14 -15 -15 -15 -16 -16
-4 -3 -4 -3 -1 -2 -3 -2 -2 -1 -1 -3 -5 -5 -5 -5 -5 -5 -5 -5 -6 -6 -6 -6 -7 -7 -8 -8 -9 -9 -9 -13 -13 -13 -13 -14 -14 -14 -13 -14 -15 -15 -15 -16
-3 -3 -4 -2 -3 -3 -3 -3 -3 -3 -3 -5 -5 -5 -5 -6 -6 -6 -6 -6 -6 -6 -6 -7 -7 -7 -8 -8 -9 -9 -10 -12 -13 -13 -13 -13 -14 -13 -14 -14 -14 -15 -15 -16
-2 -2 -2 -3 -4 -4 -4 -4 -3 -3 -4 -5 -5 -5 -6 -6 -6 -6 -6 -6 -6 -6 -6 -7 -7 -7 -8 -8 -8 -9 -10 -12 -13 -13 -13 -14 -14 -15 -15 -15 -15 -16 -17 -18
-2 -3 -4 -4 -4 -5 -5 -4 -4 -5 -6 -6 -5 -5 -6 -7 -7 -7 -7 -7 -7 -7 -7 -7 -8 -8 -8 -8 -9 -10 -12 -13 -13 -13 -13 -16 -16 -15 -15 -16 -18 -20 -21 -21
-4 -4 -5 -5 -5 -6 -5 -5 -6 -6 -6 -6 -6 -6 -6 -7 -7 -8 -8 -8 -8 -8 -8 -8 -9 -9 -9 -9 -9 -12 -13 -13 -14 -16 -17 -16 -15 -16 -18 -20 -22 -24 -23 -23
-4 -5 -5 -5 -6 -6 -6 -6 -6 -6 -6 -6 -6 -6 -6 -7 -7 -8 -8 -8 -9 -9 -9 -9 -9 -9 -9 -10 -12 -20 -21 -20 -18 -17 -17 -17 -18 -20 -22 -24 -24 -25 -25 -25
-5 -5 -6 -6 -6 -6 -6 -6 -7 -6 -6 -7 -7 -7 -7 -7 -8 -8 -9 -9 -9 -10 -10 -10 -10 -10 -10 -12 -19 -16 -15 -17 -18 -17 -18 -19 -21 -22 -24 -25 -25 -25 -25 -26
-6 -6 -6 -7 -7 -7 -7 -8 -8 -7 -7 -7 -7 -8 -8 -8 -8 -8 -9 -9 -10 -10 -10 -10 -11 -11 -15 -18 -16 -15 -16 -17 -18 -19 -19 -20 -22 -24 -25 -25 -25 -25 -26 -27
-6 -7 -7 -7 -7 -8 -8 -8 -8 -7 -8 -8 -8 -8 -8 -9 -9 -9 -10 -10 -10 -10 -11 -11 -12 -13 -12 -17 -17 -17 -17 -18 -19 -20 -21 -22 -24 -25 -26 -26 -27 -28 -29 -30
-7 -7 -7 -7 -8 -8 -8 -9 -8 -8 -8 -8 -8 -9 -9 -9 -9 -10 -10 -10 -11 -11 -11 -11 -12 -15 -19 -17 -17 -18 -18 -19 -20 -21 -23 -25 -26 -27 -28 -29 -30 -30 -31 -31

GFSNGP_850_dewp_150.txt.gz
Dewpoint
1 -1 -2 -2 -2 -2 -3 -2 1 -3 -5 -7 -8 -6 -5 -2 -1 0 2 3 2 2 1 1 1 0 -0 -1 -2 -4 -5 -4 -4 -4 -5 -6 -6 -9 -13 -15 -16 -23 -29 -31
2 1 0 1 -2 -2 -1 -2 -3 -2 -2 -5 -6 -5 -4 -3 -3 1 2 3 2 2 2 1 1 0 -1 -1 -2 -4 -4 -3 -3 -4 -4 -5 -7 -10 -16 -21 -18 -16 -27 -19
0 -3 -0 2 -1 -2 -3 -3 -1 3 -1 -5 -5 -6 -5 -4 -3 -1 2 3 3 2 1 1 0 -0 -0 -2 -2 -3 -2 -4 -4 -4 -5 -6 -8 -12 -18 -20 -12 -20 -19 -13
-0 -3 1 -7 -10 -9 -7 -7 -7 -6 -5 -4 -6 -5 -3 -2 -2 -0 1 3 3 2 2 1 0 -1 -2 -2 -2 -2 -3 -4 -4 -4 -4 -4 -4 -8 -21 -20 -21 -28 -24 -16
-1 -4 -8 -10 -11 -7 -3 -4 -8 -7 -7 -7 -5 -2 -4 0 -1 -1 -0 3 3 3 2 2 -0 -1 -2 -1 -1 -2 -2 -3 -3 -2 -3 -4 -6 -15 -23 -26 -29 -30 -26 -25
-1 -1 -3 -6 -11 -11 -7 -0 -8 -6 -4 -4 -4 -0 -3 1 -2 -4 -4 -1 1 2 3 2 1 0 -1 -1 -1 -1 -2 -3 -2 -3 -4 -4 -9 -18 -25 -29 -30 -28 -26 -25
1 1 -3 -8 -10 -4 0 -5 -6 -5 -4 -5 -3 -3 -1 -2 -3 -3 -2 -0 -0 1 1 3 2 1 -1 -1 -1 -2 -2 -3 -4 -4 -4 -5 -11 -22 -27 -28 -26 -23 -23 -23
-2 0 2 -7 -6 -1 -4 -4 -5 -4 -4 -3 -2 -1 -1 -2 -3 -3 -3 -1 0 1 2 2 1 0 -0 -1 -2 -2 -1 -3 -4 -4 -6 -6 -13 -23 -25 -24 -22 -18 -17 -15
-7 -6 -5 -3 -3 -2 -2 -3 -3 -3 -3 -2 -1 -2 -2 -2 -2 -2 -3 -1 0 1 1 1 0 -1 -1 -2 -3 -3 -3 -4 -4 -5 -6 -9 -19 -22 -22 -21 -12 -12 -12 -12
-3 -5 -5 -6 -6 -4 -4 -3 -3 -3 -2 -1 -3 -2 -1 -1 -1 -2 -2 -2 -0 -0 0 -1 -1 -1 -2 -2 -3 -3 -4 -4 -5 -6 -7 -15 -18 -18 -16 -11 -11 -11 -11 -11
-3 -5 -6 -4 -4 -4 -4 -2 -3 -1 -0 -1 -2 -2 -1 -1 -1 -1 -2 -1 -1 -1 -1 -2 -2 -3 -3 -3 -3 -4 -4 -5 -6 -6 -8 -14 -13 -13 -12 -12 -12 -11 -11 -11
-6 -11 -6 0 -2 -2 -2 -3 -2 -1 -1 -2 -3 -2 -1 -1 -1 -1 -2 -2 -1 -1 -1 -2 -3 -3 -4 -4 -4 -4 -5 -5 -6 -7 -10 -11 -11 -12 -13 -15 -19 -18 -16 -12
-7 -8 -5 -1 -1 -2 -3 -3 -1 -2 -2 -1 -3 -2 -1 -1 -1 -1 -2 -2 -2 -2 -2 -2 -3 -4 -4 -4 -4 -4 -5 -6 -7 -10 -10 -11 -11 -12 -13 -14 -17 -23 -24 -22
-8 -2 -0 -0 -3 -2 -2 -2 -4 -5 -6 -5 -2 -1 -1 -1 -2 -2 -3 -3 -2 -3 -3 -3 -3 -3 -4 -4 -5 -5 -5 -5 -7 -9 -9 -10 -10 -11 -12 -13 -15 -17 -19 -17
-6 0 0 -2 -3 -2 -1 -2 -2 -2 -3 -2 -1 -2 -2 -2 -3 -3 -3 -3 -3 -3 -3 -4 -4 -4 -4 -5 -5 -5 -5 -6 -7 -8 -9 -10 -11 -11 -12 -12 -13 -13 -14 -14
-3 -1 -2 -2 -2 -3 -1 -1 -1 -1 -1 -1 -2 -3 -3 -3 -3 -3 -3 -4 -4 -4 -4 -4 -4 -4 -5 -5 -5 -6 -6 -6 -7 -9 -9 -10 -11 -12 -12 -12 -12 -13 -13 -13
-3 -3 -4 -4 -4 -3 -2 -1 -1 -0 -1 -2 -2 -2 -5 -5 -4 -4 -4 -4 -4 -4 -4 -5 -5 -5 -5 -6 -6 -7 -7 -8 -8 -9 -10 -11 -11 -12 -12 -12 -13 -13 -13 -13
-5 -6 -4 -4 -3 -1 -1 -1 -0 -1 -1 -2 -3 -5 -5 -5 -5 -5 -5 -5 -5 -5 -5 -5 -6 -6 -6 -7 -7 -7 -8 -8 -9 -10 -11 -11 -11 -12 -12 -13 -13 -13 -13 -14
-5 -6 -4 -3 -2 -0 -1 -1 -2 -1 -1 -3 -5 -6 -6 -5 -5 -5 -5 -6 -6 -6 -6 -6 -6 -6 -7 -7 -8 -8 -8 -9 -10 -10 -10 -11 -14 -15 -16 -13 -13 -13 -14 -16
-4 -3 -2 -3 -1 -2 -3 -3 -2 -2 -2 -5 -6 -6 -6 -6 -6 -6 -6 -6 -6 -6 -6 -7 -7 -7 -7 -8 -8 -8 -9 -9 -10 -10 -11 -11 -14 -14 -13 -13 -13 -13 -14 -15
-2 -2 -3 -3 -3 -3 -3 -4 -4 -3 -4 -6 -6 -6 -7 -7 -7 -7 -7 -7 -7 -7 -7 -7 -7 -7 -8 -8 -9 -9 -10 -10 -10 -11 -12 -12 -12 -12 -12 -13 -13 -13 -13 -14
-3 -3 -3 -4 -4 -4 -4 -4 -4 -4 -6 -6 -6 -6 -7 -8 -8 -8 -8 -7 -7 -7 -7 -7 -7 -7 -8 -8 -9 -9 -9 -10 -10 -11 -11 -12 -12 -12 -12 -13 -13 -14 -14 -15
-2 -3 -4 -4 -4 -5 -4 -5 -6 -6 -6 -6 -6 -7 -8 -8 -8 -8 -8 -9 -9 -9 -8 -8 -8 -8 -8 -8 -9 -9 -9 -9 -9 -11 -12 -13 -12 -13 -13 -14 -15 -15 -16 -18
-3 -4 -5 -5 -5 -5 -6 -6 -6 -6 -6 -6 -6 -7 -7 -8 -8 -9 -9 -9 -10 -10 -9 -8 -8 -8 -9 -9 -9 -9 -9 -10 -10 -11 -13 -15 -16 -17 -16 -16 -16 -19 -20 -22
-4 -5 -5 -5 -6 -6 -6 -6 -6 -7 -7 -7 -7 -7 -7 -8 -8 -9 -9 -10 -10 -10 -10 -9 -9 -9 -9 -9 -10 -10 -10 -12 -13 -17 -18 -16 -14 -14 -18 -20 -21 -22 -24 -25
-5 -6 -6 -6 -6 -7 -7 -7 -7 -7 -7 -7 -7 -7 -8 -8 -8 -8 -9 -10 -10 -10 -10 -10 -10 -10 -10 -10 -10 -12 -16 -18 -18 -18 -18 -18 -19 -20 -21 -22 -23 -24 -25 -25
-6 -6 -7 -7 -7 -7 -8 -8 -8 -8 -7 -7 -8 -8 -8 -9 -9 -9 -9 -10 -10 -11 -11 -11 -11 -11 -11 -12 -14 -15 -16 -17 -19 -20 -21 -21 -22 -23 -24 -25 -25 -26 -26 -27

GFSNGP_850_dewp_153.txt.gz
Dewpoint
-1 -4 -4 -5 -5 -6 -5 -6 -2 -4 -6 -8 -9 -10 -10 -9 -7 -6 -6 -4 -0 2 2 2 2 2 2 1 1 0 -0 -1 -2 -2 -3 -4 -5 -6 -8 -9 -10 -13 -19 -20
2 -1 -2 -3 -5 -6 -6 -6 -6 -6 -5 -9 -10 -10 -8 -8 -8 -6 -5 -4 -0 2 2 2 2 2 1 1 0 -0 -1 -2 -2 -3 -4 -4 -5 -7 -6 -7 -7 -16 -18 -11
-1 -6 -4 2 -2 -6 -6 -7 -6 0 -4 -6 -7 -9 -8 -8 -7 -5 -3 -2 -0 0 3 3 3 2 1 1 0 -1 -2 -2 -4 -4 -4 -5 -4 -4 -7 -8 -7 -17 -12 -10
-2 -5 -2 -9 -12 -12 -11 -12 -12 -10 -10 -10 -11 -10 -8 -7 -4 -3 -3 -2 -0 1 2 3 3 2 1 0 -1 -1 -3 -4 -4 -4 -3 -4 -5 -6 -8 -9 -10 -14 -9 -10
-3 -6 -10 -13 -15 -13 -12 -10 -11 -10 -9 -11 -11 -9 -6 -1 -1 -1 -0 0 0 2 4 2 2 3 0 -0 -1 -3 -3 -4 -3 -3 -3 -4 -3 -4 -6 -6 -16 -16 -9 -11
-5 -3 -4 -7 -13 -15 -11 -4 -13 -12 -9 -9 -7 -2 -4 1 0 -4 -4 -1 -1 -0 1 1 3 3 1 -1 -2 -3 -3 -3 -4 -3 -3 -4 -5 -5 -6 -17 -17 -16 -14 -17
-4 -3 -6 -10 -11 -11 -4 -5 -4 -3 -7 -7 -5 -4 -3 -2 -4 -3 -3 -2 -4 -2 1 2 2 2 -0 -2 -3 -3 -3 -4 -4 -4 -4 -5 -5 -7 -16 -12 -14 -16 -14 -18
-0 0 1 -10 -9 -4 -4 -2 -4 -2 -2 -4 -3 -3 -2 -4 -4 -3 -3 -0 -1 -2 1 2 1 1 -1 -2 -3 -3 -3 -4 -4 -5 -5 -6 -6 -11 -17 -15 -14 -11 -12 -12
-9 -6 -10 -9 -6 -5 -6 -4 -4 -4 -2 -1 -3 -2 -3 -3 -2 -2 -2 -1 -1 -1 1 1 0 -1 -1 -3 -3 -3 -4 -4 -4 -5 -6 -6 -6 -10 -11 -10 -10 -11 -11 -11
-5 -6 -9 -10 -5 -7 -6 -5 -6 -4 -3 -3 -1 -2 -3 -2 -1 -1 -2 -1 -1 -1 -0 -1 -1 -2 -2 -2 -3 -4 -4 -5 -5 -5 -5 -6 -8 -12 -10 -10 -10 -10 -10 -11
-7 -9 -10 -10 -8 -8 -6 0 -2 -4 -3 -2 0 -2 0 -0 -0 -1 -1 -1 -1 -2 -1 -1 -2 -2 -3 -3 -4 -5 -5 -5 -5 -6 -6 -7 -11 -11 -10 -9 -9 -9 -9 -10
-5 -12 -10 -11 -13 -9 -4 -1 -2 -4 -3 -1 -1 -0 -0 -0 -0 -0 -1 -1 -2 -2 -2 -2 -2 -3 -3 -4 -4 -5 -5 -6 -6 -6 -7 -9 -10 -11 -10 -10 -10 -10 -10 -10
-10 -12 -12 -11 -7 -5 -2 -2 -2 -3 -2 -4 -2 -1 -1 0 -0 -1 -1 -2 -2 -2 -2 -2 -3 -3 -4 -5 -5 -5 -5 -6 -6 -7 -7 -9 -10 -10 -11 -12 -11 -11 -11 -11
-12 -11 -9 -6 -8 -1 1 -1 -1 -2 -2 -2 -2 -1 -0 -1 -1 -1 -2 -3 -3 -2 -3 -3 -3 -4 -4 -5 -6 -6 -6 -6 -6 -7 -9 -9 -10 -10 -11 -14 -16 -18 -16 -16
-9 -9 -8 -8 -5 1 -2 -2 -2 -3 -2 -1 -1 -1 -1 -2 -2 -2 -3 -3 -3 -3 -3 -4 -4 -5 -5 -6 -6 -6 -6 -6 -7 -8 -9 -9 -10 -10 -11 -11 -12 -13 -13 -14
-6 -5 -5 -0 1 -1 -4 -4 -4 -5 -1 -0 -1 -1 -2 -2 -2 -3 -3 -3 -4 -4 -4 -5 -5 -5 -6 -7 -7 -7 -7 -7 -8 -8 -9 -10 -10 -11 -11 -11 -11 -12 -12 -13
-5 -3 -3 -3 -3 -3 -5 -7 -5 -4 -1 -0 -1 -2 -2 -3 -4 -4 -4 -4 -4 -4 -5 -5 -5 -6 -6 -7 -7 -7 -8 -8 -8 -9 -9 -10 -11 -11 -10 -10 -11 -11 -12 -12
-5 -4 -5 -7 -7 -6 -4 -1 -1 -0 0 -1 -2 -3 -5 -6 -4 -5 -5 -5 -5 -5 -5 -5 -5 -6 -7 -7 -7 -8 -8 -9 -9 -9 -10 -10 -10 -10 -11 -11 -11 -12 -11 -12
-4 -6 -6 -5 -5 -4 -1 0 0 -0 -1 -1 -3 -5 -6 -6 -5 -5 -5 -5 -5 -5 -6 -6 -6 -6 -7 -8 -8 -8 -8 -9 -9 -9 -10 -11 -11 -11 -11 -11 -12 -12 -12 -13
-2 -5 -6 -2 -0 -1 -0 -1 -2 -2 -1 -3 -5 -6 -6 -6 -6 -5 -6 -6 -6 -6 -6 -6 -7 -7 -7 -8 -8 -8 -8 -9 -10 -10 -10 -11 -11 -11 -12 -12 -12 -12 -12 -13
-2 -2 -2 -2 -2 -2 -2 -3 -3 -2 -2 -5 -6 -6 -6 -7 -6 -6 -6 -6 -6 -6 -7 -7 -7 -7 -8 -8 -9 -9 -9 -10 -10 -10 -11 -11 -11 -11 -12 -12 -12 -12 -12 -13
-3 -3 -3 -3 -3 -3 -3 -3 -3 -3 -4 -5 -6 -6 -7 -7 -7 -7 -6 -6 -7 -7 -7 -7 -8 -8 -8 -8 -9 -9 -9 -10 -10 -10 -10 -10 -10 -11 -11 -12 -12 -12 -12 -13
-3 -4 -3 -4 -4 -4 -4 -4 -4 -4 -5 -6 -6 -6 -7 -7 -7 -7 -7 -8 -8 -7 -7 -8 -8 -8 -8 -9 -9 -9 -9 -9 -9 -10 -10 -10 -11 -11 -11 -12 -12 -12 -13 -13
-3 -3 -3 -4 -4 -4 -4 -5 -5 -6 -6 -6 -6 -7 -7 -7 -7 -7 -7 -9 -10 -9 -8 -8 -7 -8 -8 -9 -9 -9 -9 -9 -9 -10 -10 -10 -11 -11 -12 -12 -12 -13 -13 -13
-4 -4 -5 -5 -4 -4 -6 -6 -6 -6 -6 -6 -6 -7 -7 -7 -7 -8 -9 -10 -10 -10 -10 -8 -8 -8 -9 -9 -9 -9 -9 -10 -10 -10 -11 -11 -12 -12 -12 -13 -13 -13 -14 -15
-4 -4 -4 -4 -5 -5 -6 -6 -6 -6 -7 -7 -7 -7 -7 -7 -7 -8 -9 -10 -10 -10 -10 -9 -9 -9 -9 -10 -10 -10 -10 -10 -11 -12 -13 -12 -12 -12 -12 -13 -15 -16 -16 -17
-4 -5 -5 -5 -6 -6 -6 -6 -7 -7 -7 -7 -7 -7 -8 -8 -8 -8 -9 -10 -10 -10 -10 -10 -10 -10 -11 -10 -10 -11 -11 -14 -15 -17 -15 -16 -17 -16 -18 -18 -16 -18 -18 -21